Weather History for Hartford, CT

Change the Weather History Date:

Sunday, February 3, 2013

  Actual Average Record
Temperature  
Mean Temperature 24 °F -  
Max Temperature 30 °F 38 °F 56 °F (1983)
Min Temperature 19 °F 18 °F -4 °F (1955)
Degree Days  
Heating Degree Days 40    
Moisture  
Dew Point 16 °F    
Average Humidity 68    
Maximum Humidity 89    
Minimum Humidity 49    
Precipitation  
Precipitation 0.00 in - - ()
Sea Level Pressure  
Sea Level Pressure 29.88 in    
Wind  
Wind Speed 3 mph (NNW)    
Max Wind Speed 7 mph    
Max Gust Speed -    
Visibility 10 miles    
Events      
Averages and records for this station are not official NWS values.
T = Trace of Precipitation, MM = Missing Value Source: NWS Daily Summary

Daily Weather History Graph

Daily Weather History Graph

Search for Another Location

Airport:

Trip Planner

Search our weather history database for the weather conditions in past years. The results will help you decide how hot, cold, wet, or windy it might be!

Date:

Astronomy

Feb. 03, 2013 Rise Set
Actual Time 7:00 AM EST 5:08 PM EST
Civil Twilight 6:31 AM EST 5:38 PM EST
Nautical Twilight 5:58 AM EST 6:11 PM EST
Astronomical Twilight 5:25 AM EST 6:43 PM EST
Moon 12:25 AM EST (2/3) 10:43 AM EST (2/3)
Length of Visible Light 11h 07m
Length of Day
10h 08m
Waning Gibbous, 49% of the Moon is Illuminated
Feb 3
Waning Gibbous
Feb 10
New
Feb 17
First Quarter
Feb 25
Full
Mar 4
Last Quarter

Hourly Weather History & Observations

Time (EST) Temp. Windchill Dew Point Humidity Pressure Visibility Wind Dir Wind Speed Gust Speed Precip Events Conditions
12:53 AM 23.0 °F 18.4 °F 18.0 °F 81% 30.06 in 6.0 mi West 3.5 mph - 0.00 in   Haze
1:53 AM 23.0 °F - 17.1 °F 78% 30.04 in 10.0 mi Calm Calm - N/A   Overcast
2:53 AM 23.0 °F - 17.1 °F 78% 30.01 in 10.0 mi Calm Calm - N/A   Overcast
3:53 AM 23.0 °F 18.4 °F 17.1 °F 78% 29.99 in 10.0 mi North 3.5 mph - N/A   Overcast
4:53 AM 21.9 °F 17.2 °F 17.1 °F 82% 29.98 in 10.0 mi North 3.5 mph - N/A   Partly Cloudy
5:53 AM 19.9 °F 12.1 °F 17.1 °F 89% 29.97 in 10.0 mi NNE 5.8 mph - N/A   Clear
6:53 AM 19.9 °F 14.9 °F 17.1 °F 89% 29.97 in 10.0 mi North 3.5 mph - N/A   Clear
7:53 AM 21.0 °F - 18.0 °F 88% 29.99 in 8.0 mi Calm Calm - N/A   Clear
8:53 AM 24.1 °F 18.2 °F 19.0 °F 81% 29.97 in 9.0 mi North 4.6 mph - N/A   Clear
9:53 AM 24.1 °F 19.7 °F 17.1 °F 75% 29.96 in 10.0 mi Variable 3.5 mph - N/A   Clear
10:53 AM 26.1 °F 21.9 °F 17.1 °F 69% 29.93 in 10.0 mi North 3.5 mph - N/A   Partly Cloudy
11:53 AM 28.0 °F 22.8 °F 16.0 °F 61% 29.88 in 10.0 mi West 4.6 mph - N/A   Partly Cloudy
12:53 PM 28.9 °F - 14.0 °F 54% 29.84 in 10.0 mi Calm Calm - N/A   Partly Cloudy
1:53 PM 30.9 °F - 14.0 °F 50% 29.81 in 10.0 mi Calm Calm - N/A   Partly Cloudy
2:53 PM 30.9 °F 26.2 °F 14.0 °F 50% 29.80 in 10.0 mi NNW 4.6 mph - N/A   Partly Cloudy
3:53 PM 30.0 °F 25.2 °F 12.9 °F 49% 29.78 in 10.0 mi NNW 4.6 mph - N/A   Partly Cloudy
4:53 PM 28.0 °F 20.8 °F 14.0 °F 56% 29.77 in 10.0 mi NNE 6.9 mph - N/A   Partly Cloudy
5:53 PM 27.0 °F 21.6 °F 14.0 °F 58% 29.78 in 10.0 mi North 4.6 mph - N/A   Clear
6:53 PM 28.0 °F - 14.0 °F 56% 29.78 in 10.0 mi Calm Calm - N/A   Clear
7:53 PM 27.0 °F - 14.0 °F 58% 29.78 in 10.0 mi Calm Calm - N/A   Clear
8:53 PM 25.0 °F - 15.1 °F 66% 29.79 in 10.0 mi Calm Calm - N/A   Scattered Clouds
9:53 PM 26.1 °F 21.9 °F 15.1 °F 63% 29.79 in 9.0 mi West 3.5 mph - N/A   Partly Cloudy
10:53 PM 25.0 °F 20.7 °F 12.9 °F 60% 29.78 in 10.0 mi West 3.5 mph - N/A   Clear
11:53 PM 24.1 °F 19.7 °F 12.0 °F 60% 29.78 in 10.0 mi West 3.5 mph - N/A   Clear